Location: Angwan Shehu
(11.2514°N, 7.4613°E)
Time: 18:25:31
(UTC+00:00)

ATLAS 5 CENTAUR R/B - Pass Details

Date: 14 November 2019
Orbit: 563 x 1096 km, 63.3° (Epoch: 29 November)

Event Time Altitude Azimuth Distance (km) Brightness Sun altitude
Rises 18:00:45 0° 357° (N) 3,621 5.4 -14.3°
Reaches altitude 10° 18:03:42 10° 9° (N) 2,752 4.6 -15.0°
Maximum altitude 18:09:04 26° 64° (ENE) 1,928 3.5 -16.3°
Enters shadow 18:10:57 23° 89° (E) 2,081 3.6 -16.7°
